Home   Weather   Fukushima   Past weeks
Flag for Japan

Past Weather in Fukushima, Japan — Yesterday and Last 2 Weeks

Now
34 °F

Chilly.


Feels Like: 31 °F
Forecast: 44 / 29 °F
Wind: 3 mph from Southwest

Location: Wakamatsu

Current Time: Dec 7, 2019 at 3:24:44 am

Latest Report: Dec 7, 2019 at 2:00 am


Visibility: 13 mi

Pressure: 30.36 "Hg

Humidity: 91%

Dew Point: 31 °F

Location of FukushimaLocation

Past Weather in Fukushima — Graph

°F

Fukushima Temperature Yesterday

Maximum temperature yesterday: 39 °F (at 10:00 am)
Minimum temperature yesterday: 34 °F (at 6:00 am)
Average temperature yesterday: 36 °F

High & Low Weather Summary for the Past Weeks

 TemperatureHumidityPressure
High61 °F (Nov 24, 3:00 pm)100% (Nov 24, 8:00 pm)30.63 "Hg (Nov 24, 8:00 pm)
Low26 °F (Dec 1, 7:00 am)47% (Nov 26, 3:00 pm)29.70 "Hg (Dec 2, 1:00 pm)
Average41 °F83%30.24 "Hg
* Reported Nov 22 1:00 am — Dec 7 1:00 am, Fukushima. Weather by CustomWeather, © 2019

Note: Actual official high and low records may vary slightly from our data, if they occured in-between our weather recording intervals... More about our weather records

Fukushima Weather History for the Previous 24 Hours

Scroll right to see more
 ConditionsComfort  
Time TempWeatherWind HumidityBarometerVisibility
1:00 am
Sat, Dec 7
33 °FChilly.3 mph90%30.36 "Hg12 mi
12:00 am33 °FChilly.1 mph87%30.37 "Hg12 mi
11:00 pm
Fri, Dec 6
35 °FFreezing rain. Overcast.3 mph83%30.36 "Hg12 mi
10:00 pm36 °FChilly.2 mph79%30.39 "Hg12 mi
9:00 pm37 °FChilly.6 mph74%30.39 "Hg12 mi
8:00 pm37 °FChilly.6 mph71%30.39 "Hg12 mi
7:00 pm36 °FChilly.5 mph79%30.37 "Hg12 mi
6:00 pm36 °FChilly.5 mph72%30.36 "Hg12 mi
5:00 pm36 °FChilly.3 mph75%30.35 "Hg12 mi
4:00 pm37 °FLight snow. Cloudy.6 mph71%30.36 "Hg12 mi
3:00 pm37 °FChilly.9 mph71%30.35 "Hg12 mi
2:00 pm38 °FChilly.8 mph66%30.34 "Hg12 mi
1:00 pm37 °FFreezing rain. Cloudy.9 mph73%30.34 "Hg12 mi
12:00 pm38 °FChilly.13 mph74%30.33 "Hg12 mi
11:00 am38 °FChilly.10 mph72%30.32 "Hg12 mi
10:00 am39 °FChilly.10 mph68%30.34 "Hg12 mi
9:00 am39 °FChilly.9 mph66%30.33 "Hg12 mi
8:00 am36 °FChilly.2 mph79%30.34 "Hg12 mi
7:00 am34 °FChilly.3 mph86%30.33 "Hg12 mi
6:00 am34 °FChilly.6 mph83%30.29 "Hg12 mi
5:00 am35 °FChilly.3 mph81%30.29 "Hg12 mi
4:00 am35 °FChilly.2 mph82%30.25 "Hg12 mi
3:00 am35 °FChilly.5 mph84%30.24 "Hg12 mi
Weather by CustomWeather, © 2019

See weather overview

Advertising